Tracking 20083 objects as of 10-Dec-2019
HD Live streaming from Space Station
objects crossing your sky now

NARSSCUBE-1

Track NARSSCUBE-1 now!
10-day predictions


NORAD ID: 44792
Int'l Code: 1998-067QV
Perigee: 417.3 km
Apogee: 426.3 km
Inclination: 51.6 °
Period: 92.9 minutes
Semi major axis: 6792 km
RCS: Unknown
Launch date: November 20, 1998
Source: Egypt (EGYP)
Launch site: TYURATAM MISSILE AND SPACE COMPLEX (TTMTR)
aabbcc
Your satellite tracking list
Your tracking list is empty




NASA's NSSDC Master Catalog

Two Line Element Set (TLE):
1 44792U 98067QX  19342.40954613 -.00000463  00000-0  00000+0 0  9990
2 44792  51.6411 217.4815 0006617  13.8739 156.7110 15.50701597  2806
Source of the keplerian elements: AFSPC